Simultaneous Nadir Overpasses (SNOs) Predictions

Prediction of SNOs between NOAA-20 and AQUA Satellite Orbit:

Table of predicted SNOs for the next 14.0 days since TLE Epoch: 6/1/2018
Index Date (NOAA-20) Time (NOAA-20) Lat,Lon (NOAA-20) SZA (NOAA-20 ) Date (AQUA) Time (AQUA) Lat,Lon (AQUA) SZA (AQUA ) Distance(km) Time Diff (sec)
1 06/03/2018 06:46:04 76.16, -42.11 75.12 06/03/2018 06:46:45 76.17, -42.06 75.07 1.57 41
2 06/03/2018 07:36:29 -77.09, 128.74 106.06 06/03/2018 07:35:53 -77.09, 128.76 106.04 0.62 36
3 06/05/2018 23:02:45 76.72, 75.73 74.14 06/05/2018 23:03:02 76.72, 75.64 74.15 2.55 17
4 06/05/2018 23:53:20 -77.20,-115.03 106.48 06/05/2018 23:52:19 -77.21,-114.92 106.46 3.01 61
5 06/08/2018 14:29:14 -75.84, 21.03 104.99 06/08/2018 14:30:23 -75.84, 21.04 105.05 0.30 69
6 06/08/2018 15:19:34 76.92,-167.71 73.66 06/08/2018 15:19:26 76.92,-167.76 73.68 1.31 8
7 06/11/2018 06:46:01 -76.09, 137.65 105.47 06/11/2018 06:46:45 -76.10, 137.71 105.52 1.83 44
8 06/11/2018 07:36:22 77.11, -51.14 73.23 06/11/2018 07:35:49 77.11, -51.16 73.26 0.63 33
9 06/13/2018 23:02:49 -76.34,-105.71 105.91 06/13/2018 23:03:08 -76.35,-105.61 105.95 2.77 19




NCC Satellite Simultaneous Nadir Overpasses (SNOs) Prediction Service
